This is the latest recevied weather packets stored in our database for station/object M0TUM-1. If no packets are shown the sender has not sent any weather packets the latest 10 day(s).
| Time | Temp. | Humidity | Pressure | Rain* | Wind** | Luminosity | Snow |
|---|---|---|---|---|---|---|---|
| 1777965874 | 9.44° C | 86% | 1013.5 hPa | 0 mm | - | 150 W/m² | - |
| 1777965571 | 9.44° C | 87% | 1013.6 hPa | 0 mm | - | 150 W/m² | - |
| 1777965267 | 9.44° C | 87% | 1013.6 hPa | 0 mm | - | 153 W/m² | - |
| 1777964965 | 8.89° C | 87% | 1013.6 hPa | 0 mm | - | 145 W/m² | - |
| 1777964661 | 8.89° C | 88% | 1013.4 hPa | 0 mm | - | 145 W/m² | - |
| 1777964357 | 8.89° C | 88% | 1013.7 hPa | 0 mm | - | 140 W/m² | - |
| 1777964053 | 8.33° C | 89% | 1013.8 hPa | 0 mm | - | 142 W/m² | - |
| 1777963750 | 8.33° C | 89% | 1014 hPa | 0 mm | - | 132 W/m² | - |
| 1777963448 | 7.78° C | 88% | 1014 hPa | 0 mm | - | 123 W/m² | - |
| 1777963146 | 7.78° C | 89% | 1013.8 hPa | 0 mm | - | 127 W/m² | - |
| 1777962842 | 7.22° C | 89% | 1013.7 hPa | 0 mm | - | 125 W/m² | - |
| 1777962538 | 7.22° C | 89% | 1013.8 hPa | 0 mm | - | 115 W/m² | - |
| 1777962236 | 7.22° C | 89% | 1014 hPa | 0 mm | - | 111 W/m² | - |
| 1777961932 | 6.67° C | 89% | 1013.9 hPa | 0 mm | - | 104 W/m² | - |
| 1777961631 | 6.67° C | 89% | 1013.8 hPa | 0 mm | - | 91 W/m² | - |
| 1777961328 | 6.11° C | 89% | 1013.9 hPa | 0 mm | - | 78 W/m² | - |
| 1777961024 | 6.11° C | 90% | 1013.9 hPa | 0 mm | - | 63 W/m² | - |
| 1777960721 | 6.11° C | 89% | 1013.7 hPa | 0 mm | - | 56 W/m² | - |
| 1777960416 | 6.11° C | 90% | 1014 hPa | 0 mm | - | 58 W/m² | - |
| 1777960114 | 5.56° C | 90% | 1013.9 hPa | 0 mm | - | 58 W/m² | - |
| 1777959811 | 5.56° C | 90% | 1014 hPa | 0 mm | - | 62 W/m² | - |
| 1777959509 | 5.56° C | 90% | 1013.7 hPa | 0 mm | - | 59 W/m² | - |
| 1777959206 | 5.56° C | 90% | 1013.9 hPa | 0 mm | - | 55 W/m² | - |
| 1777958903 | 5.56° C | 90% | 1013.7 hPa | 0 mm | - | 53 W/m² | - |
| 1777958600 | 5° C | 90% | 1013.7 hPa | 0 mm | - | 48 W/m² | - |
* Rain latest hour (hover to see other rain measurements)
** Current wind speed in m/s (hover to see current wind gust speed)